Hourly Data Report for September 26, 2017

All times are specified in Local Standard Time (LST). Add 1 hour to adjust for Daylight Saving Time where and when it is observed.

ALGONQUIN PARK EAST GATE
ONTARIO

45°32'00.000" N
78°16'00.000" W
397.00 m
6080192
71581
TNK

Download Data

Hourly Data (September 2017)
Hourly Data Report for September 26, 2017
Temp Definition
°C
Dew Point Temp Definition
°C
Rel Hum Definition
%
Wind Dir Definition
10's deg

Wind Spd Definition
km/h
Visibility Definition
km
Stn Press Definition
kPa
Hmdx Definition


Wind Chill Definition


Weather Definition


TIME
00:00 16.2 14.6 91   0   97.04     LegendNANA
01:00 15.5 13.9 90   0   97.06     LegendNANA
02:00 14.9 13.4 91   0   97.03     LegendNANA
03:00 14.3 12.9 91   0   97.03     LegendNANA
04:00 13.9 12.6 92   0   97.03     LegendNANA
05:00 13.7 12.4 92   0   97.02     LegendNANA
06:00 13.4 12.2 93   0   97.01     LegendNANA
07:00 13.8 12.7 93   0   97.02     LegendNANA
08:00 17.3 15.7 91   0   97.03     LegendNANA
09:00 21.4 17.9 80   0   97.02 27   LegendNANA
10:00 23.8 17.9 70   0   96.99 30   LegendNANA
11:00 27.4 18.2 57 23 4   96.94 34   LegendNANA
12:00 28.2 17.8 53 20 6   96.88 34   LegendNANA
13:00 28.3 16.1 47 21 5   96.82 33   LegendNANA
14:00 29.0 15.6 44 22 5   96.78 33   LegendNANA
15:00 28.7 14.7 42 24 7   96.73 32   LegendNANA
16:00 27.5 15.8 49 24 6   96.70 32   LegendNANA
17:00 25.6 17.3 60 21 2   96.68 31   LegendNANA
18:00 22.3 17.3 74   0   96.69 28   LegendNANA
19:00 20.3 16.9 81   0   96.68 26   LegendNANA
20:00 19.0 16.7 86   0   96.70     LegendNANA
21:00 18.3 16.0 87   0   96.65     LegendNANA
22:00 17.2 15.3 89   0   96.64     LegendNANA
23:00 16.5 14.9 90   0   96.61     LegendNANA

Notes on Data Quality.

Legend

  • E = Estimated
  • M = Missing
  • NA = Not Available
  • ‡ = Partner data that is not subject to review by the National Climate Archives
Date modified: